SV1BIX Weather Reports


time (UTC)temp
C
wind
direction
speed
KPH
gust
KPH
rain 1hr
cm
rain 24hr
cm
rain mn
cm
humidity
%
barometer
mb
20260906110059 32 197 9.7 16.1 0.00 0.00 0.00 40 1016.8
20260906104548 32 197 6.4 12.9 0.00 0.00 0.00 43 1016.8
20260906103049 32 198 3.2 12.9 0.00 0.00 0.00 45 1016.9
20260906101546 32 197 3.2 12.9 0.00 0.00 0.00 45 1016.9
20260906100042 32 197 0.0 11.3 0.00 0.00 0.00 43 1016.8
20260906094545 32 197 0.0 11.3 0.00 0.00 0.00 42 1017.0
20260906093040 31 197 4.8 11.3 0.00 0.00 0.00 41 1017.2
20260906091541 31 197 0.0 11.3 0.00 0.00 0.00 42 1017.2
20260906090049 31 198 0.0 9.7 0.00 0.00 0.00 43 1017.4
20260906084539 30 197 0.0 1.6 0.00 0.00 0.00 46 1017.3
20260906083039 30 198 6.4 11.3 0.00 0.00 0.00 46 1017.3
20260906081522 30 197 6.4 14.5 0.00 0.00 0.00 46 1017.4
20260906080024 31 197 0.0 11.3 0.00 0.00 0.00 41 1017.4
20260906074516 31 197 0.0 1.6 0.00 0.00 0.00 33 1017.3
20260906073016 32 197 0.0 1.6 0.00 0.00 0.00 32 1017.2
20260906071519 31 197 0.0 1.6 0.00 0.00 0.00 33 1017.1
20260906070008 30 198 0.0 1.6 0.00 0.00 0.00 34 1017.0
20260906064506 30 197 0.0 1.6 0.00 0.00 0.00 35 1016.9
20260906063002 29 197 0.0 1.6 0.00 0.00 0.00 37 1016.7
20260906061549 28 197 0.0 1.6 0.00 0.00 0.00 37 1016.6
20260906060053 27 197 0.0 1.6 0.00 0.00 0.00 38 1016.5
20260906054543 27 197 0.0 1.6 0.00 0.00 0.00 38 1016.4
20260906053035 27 197 0.0 0.0 0.00 0.00 0.00 39 1016.4
20260906051535 26 197 0.0 1.6 0.00 0.00 0.00 40 1016.3
20260906050026 25 198 0.0 1.6 0.00 0.00 0.00 40 1016.3
20260906044524 25 197 0.0 1.6 0.00 0.00 0.00 39 1016.2
20260906043030 -17 0.0 0.0 0.00 0.00 0.00 1016.2
20260906041505 -17 0.0 0.0 0.00 0.00 0.00 1015.8
20260906040002 -17 0.0 0.0 0.00 0.00 0.00 1015.8
20260906034604 -17 0.0 0.0 0.00 0.00 0.00 1015.7
20260906033053 -17 0.0 0.0 0.00 0.00 0.00 1015.7
20260906031550 -17 0.0 0.0 0.00 0.00 0.00 1015.6
20260906030045 -17 0.0 0.0 0.00 0.00 0.00 1015.5
20260906024540 -17 0.0 0.0 0.00 0.00 0.00 1015.4
20260906023035 -17 0.0 0.0 0.00 0.00 0.00 1015.3
20260906021528 -17 0.0 0.0 0.00 0.00 0.00 1015.4
20260906020020 -17 0.0 0.0 0.00 0.00 0.00 1015.3
20260906014516 -17 0.0 0.0 0.00 0.00 0.00 1015.3
20260906013014 24 197 0.0 0.0 0.00 0.00 0.00 40 1015.4
20260906011510 25 197 0.0 0.0 0.00 0.00 0.00 40 1015.5
20260906010009 25 197 0.0 0.0 0.00 0.00 0.00 40 1015.7
20260906004504 25 198 0.0 0.0 0.00 0.00 0.00 39 1015.6
20260906003005 25 197 0.0 1.6 0.00 0.00 0.00 39 1015.7
20260906001602 25 197 0.0 1.6 0.00 0.00 0.00 40 1015.6
20260906000053 25 197 0.0 0.0 0.00 0.00 0.00 39 1015.7
20260905234552 25 197 0.0 0.0 0.00 0.00 0.00 39 1015.7
20260905233052 25 197 0.0 1.6 0.00 0.00 0.00 38 1015.9
20260905231555 25 197 0.0 1.6 0.00 0.00 0.00 38 1016.0
20260905230050 25 198 0.0 0.0 0.00 0.00 0.00 37 1016.2
20260905224549 25 198 0.0 0.0 0.00 0.00 0.00 37 1016.3
20260905223054 25 197 0.0 0.0 0.00 0.00 0.00 37 1016.3
20260905221542 26 197 0.0 0.0 0.00 0.00 0.00 37 1016.3
20260905220037 26 197 0.0 1.6 0.00 0.00 0.00 36 1016.2
20260905214543 26 197 0.0 1.6 0.00 0.00 0.00 38 1016.2
20260905213036 26 197 0.0 1.6 0.00 0.00 0.00 38 1016.4
20260905211535 26 198 0.0 0.0 0.00 0.00 0.00 39 1016.4
20260905210045 27 197 0.0 0.0 0.00 0.00 0.00 36 1016.4
20260905204535 27 197 0.0 0.0 0.00 0.00 0.00 38 1016.5
20260905203034 27 197 0.0 0.0 0.00 0.00 0.00 35 1016.4
20260905201522 27 198 0.0 1.6 0.00 0.00 0.00 34 1016.2
20260905200016 27 197 0.0 4.8 0.00 0.00 0.00 33 1016.2
20260905194503 27 198 3.2 9.7 0.00 0.00 0.00 34 1016.2
20260905193013 28 197 0.0 3.2 0.00 0.00 0.00 34 1016.3
20260905191502 28 197 0.0 11.3 0.00 0.00 0.00 34 1016.3
20260905190002 28 198 0.0 9.7 0.00 0.00 0.00 34 1016.4
20260905184502 28 198 4.8 16.1 0.00 0.00 0.00 34 1016.1
20260905183100 28 197 4.8 16.1 0.00 0.00 0.00 35 1016.1
20260905183001 28 197 3.2 16.1 0.00 0.00 0.00 35 1016.1
20260905181600 28 198 3.2 17.7 0.00 0.00 0.00 35 1015.8
20260905180059 28 198 0.0 9.7 0.00 0.00 0.00 35 1015.8
20260905174541 28 198 4.8 14.5 0.00 0.00 0.00 36 1015.8
20260905173049 28 198 1.6 11.3 0.00 0.00 0.00 36 1015.8
20260905171523 28 198 4.8 11.3 0.00 0.00 0.00 36 1015.5
20260905170023 29 198 3.2 12.9 0.00 0.00 0.00 35 1015.4
20260905164513 30 198 4.8 16.1 0.00 0.00 0.00 34 1015.4
20260905163011 30 198 4.8 14.5 0.00 0.00 0.00 33 1015.5
20260905161509 31 198 4.8 14.5 0.00 0.00 0.00 31 1015.5
20260905160010 31 200 4.8 16.1 0.00 0.00 0.00 30 1015.5
20260905154508 31 200 3.2 12.9 0.00 0.00 0.00 30 1015.7
20260905153014 31 200 3.2 20.9 0.00 0.00 0.00 31 1015.7
20260905151507 32 197 1.6 14.5 0.00 0.00 0.00 31 1015.6
20260905150007 32 198 4.8 17.7 0.00 0.00 0.00 30 1015.6
20260905144605 32 200 0.0 11.3 0.00 0.00 0.00 31 1015.4
20260905143052 32 201 4.8 20.9 0.00 0.00 0.00 32 1015.4
20260905141550 32 195 3.2 19.3 0.00 0.00 0.00 32 1015.4
20260905140048 32 195 4.8 17.7 0.00 0.00 0.00 32 1015.4
20260905134545 32 195 6.4 20.9 0.00 0.00 0.00 32 1015.4
20260905133042 32 198 8.0 19.3 0.00 0.00 0.00 32 1015.6
20260905131552 32 198 3.2 16.1 0.00 0.00 0.00 32 1015.6
20260905130040 32 198 4.8 17.7 0.00 0.00 0.00 32 1015.6
20260905124639 32 198 6.4 19.3 0.00 0.00 0.00 32 1015.7
20260905123051 32 198 8.0 20.9 0.00 0.00 0.00 32 1015.9
20260905121520 32 198 8.0 19.3 0.00 0.00 0.00 33 1016.0
20260905120002 32 198 6.4 20.9 0.00 0.00 0.00 33 1016.1
20260905114500 32 197 6.4 27.4 0.00 0.00 0.00 34 1016.2
20260905113048 32 198 9.7 19.3 0.00 0.00 0.00 33 1016.2
20260905111555 32 198 8.0 24.1 0.00 0.00 0.00 33 1016.3